Location: Unspecified
(43.4680°N, 87.1740°E)
Time: 03:31:45
(UTC+00:00)

Okean 2 - Pass Details

Date: 01 August 2021
Orbit: 558 x 577 km, 82.5° (Epoch: 27 September)

Event Time Altitude Azimuth Distance (km) Brightness Sun altitude
Rises 18:45:09 0° 7° (N) 2,802 8.2 -28.4°
Reaches altitude 10° 18:47:57 10° 27° (NNE) 1,897 6.9 -28.3°
Maximum altitude 18:50:51 18° 71° (ENE) 1,444 5.7 -28.3°
Enters shadow 18:51:08 18° 76° (ENE) 1,448 5.6 -28.2°
